Creede, CO

11:09 PM MST on February 27, 2017 (GMT -0700)
Wolf Creek Pass

Weather History for KCPW - April, 2014

Change the Weather History Date:

Saturday, April 26, 2014

  Actual Average (KE33) Record (KE33)
Temperature  
Mean Temperature 22 °F -  
Max Temperature 32 °F 54 °F 68 °F (2001)
Min Temperature 12 °F 34 °F 24 °F (2008)
Degree Days  
Heating Degree Days 43    
Moisture  
Dew Point 17 °F    
Average Humidity 76    
Maximum Humidity 100    
Minimum Humidity 51    
Precipitation  
Precipitation 0.60 in - - ()
Sea Level Pressure  
Sea Level Pressure 29.83 in    
Wind  
Wind Speed 19 mph (SSW)    
Max Wind Speed 37 mph    
Max Gust Speed 51 mph    
Visibility 6 miles    
Events Snow , Thunderstorm    
Averages and records for this station are not official NWS values.
T = Trace of Precipitation, MM = Missing Value Source: NWS Daily Summary

Daily Weather History Graph

Daily Weather History Graph

Search for Another Location

Airport or City:

Trip Planner

Search our weather history database for the weather conditions in past years. The results will help you decide how hot, cold, wet, or windy it might be!

Date:

Astronomy

Apr. 26, 2014 Rise Set
Actual Time 6:17 AM MDT 7:52 PM MDT
Civil Twilight 5:50 AM MDT 8:20 PM MDT
Nautical Twilight 5:16 AM MDT 8:53 PM MDT
Astronomical Twilight 4:41 AM MDT 9:29 PM MDT
Moon 4:40 AM MDT (4/26) 5:27 PM MDT (4/26)
Length of Visible Light 14h 30m
Length of Day
13h 34m
Waning Crescent, 8% of the Moon is Illuminated
Apr 26
Waning Crescent
Apr 29
New
May 6
First Quarter
May 14
Full
May 21
Last Quarter

Hourly Weather History & Observations

Time (MDT) Temp. Windchill Dew Point Humidity Pressure Visibility Wind Dir Wind Speed Gust Speed Precip Events Conditions
12:13 AM 32.0 °F 18.9 °F 15.8 °F 51% 30.06 in 10.0 mi SW 24.2 mph 31.1 mph N/A   Overcast
12:39 AM 32.0 °F 19.5 °F 15.8 °F 51% 30.05 in 10.0 mi SW 21.9 mph 33.4 mph N/A   Overcast
12:56 AM 32.0 °F 20.5 °F 15.8 °F 51% 30.06 in 10.0 mi SW 18.4 mph 35.7 mph N/A   Overcast
1:12 AM 32.0 °F 21.2 °F 15.8 °F 51% 30.05 in 10.0 mi SSW 16.1 mph 27.6 mph N/A   Overcast
1:38 AM 32.0 °F 21.6 °F 15.8 °F 51% 30.04 in 10.0 mi SSW 15.0 mph 28.8 mph N/A   Overcast
1:59 AM 30.2 °F 16.5 °F 15.8 °F 55% 30.03 in 10.0 mi SSW 24.2 mph 32.2 mph N/A   Mostly Cloudy
2:17 AM 30.2 °F 18.1 °F 15.8 °F 55% 30.03 in 10.0 mi SSW 18.4 mph 33.4 mph N/A   Mostly Cloudy
2:36 AM 30.2 °F 16.5 °F 15.8 °F 55% 30.02 in 10.0 mi SSW 24.2 mph 32.2 mph N/A   Overcast
2:56 AM 30.2 °F 17.1 °F 15.8 °F 55% 30.01 in 10.0 mi SSW 21.9 mph 35.7 mph N/A   Overcast
3:19 AM 30.2 °F 16.8 °F 15.8 °F 55% 30.01 in 10.0 mi SSW 23.0 mph 32.2 mph N/A   Overcast
3:38 AM 30.2 °F 17.1 °F 15.8 °F 55% 30.00 in 10.0 mi SSW 21.9 mph 32.2 mph N/A   Overcast
3:54 AM 30.2 °F 17.8 °F 15.8 °F 55% 30.00 in 10.0 mi SSW 19.6 mph 31.1 mph N/A   Overcast
4:19 AM 30.2 °F 19.3 °F 15.8 °F 55% 29.99 in 10.0 mi SSW 15.0 mph 28.8 mph N/A   Overcast
4:38 AM 30.2 °F 18.1 °F 15.8 °F 55% 29.99 in 10.0 mi SSW 18.4 mph 28.8 mph N/A   Overcast
4:59 AM 30.2 °F 19.3 °F 15.8 °F 55% 29.98 in 10.0 mi SSW 15.0 mph 29.9 mph N/A   Overcast
5:19 AM 28.4 °F 17.5 °F 15.8 °F 59% 29.97 in 10.0 mi SSW 13.8 mph 27.6 mph N/A   Overcast
5:39 AM 28.4 °F 17.0 °F 15.8 °F 59% 29.96 in 10.0 mi SSW 15.0 mph 28.8 mph N/A   Overcast
5:59 AM 28.4 °F 17.5 °F 17.6 °F 64% 29.96 in 10.0 mi SSW 13.8 mph 24.2 mph N/A   Overcast
6:18 AM 28.4 °F 18.5 °F 17.6 °F 64% 29.94 in 10.0 mi SSW 11.5 mph 28.8 mph N/A   Overcast
6:38 AM 28.4 °F 17.5 °F 17.6 °F 64% 29.94 in 10.0 mi SSW 13.8 mph 29.9 mph N/A   Overcast
6:58 AM 28.4 °F 19.7 °F 17.6 °F 64% 29.94 in 10.0 mi SSW 9.2 mph 20.7 mph N/A   Overcast
7:14 AM 26.6 °F 17.5 °F 17.6 °F 69% 29.94 in 10.0 mi SSW 9.2 mph 20.7 mph N/A   Overcast
7:34 AM 26.6 °F 19.1 °F 17.6 °F 69% 29.94 in 10.0 mi South 6.9 mph 19.6 mph N/A   Overcast
8:19 AM 26.6 °F 18.2 °F 17.6 °F 69% 29.92 in 10.0 mi SSW 8.1 mph 19.6 mph N/A   Overcast
8:39 AM 26.6 °F 16.2 °F 17.6 °F 69% 29.91 in 10.0 mi SW 11.5 mph 19.6 mph N/A   Overcast
8:59 AM 26.6 °F 18.2 °F 17.6 °F 69% 29.91 in 10.0 mi SSW 8.1 mph 18.4 mph N/A   Overcast
9:07 AM 26.6 °F 19.1 °F 17.6 °F 69% 29.90 in 10.0 mi SSW 6.9 mph 10.4 mph N/A   Overcast
9:39 AM 28.4 °F 19.1 °F 17.6 °F 64% 29.89 in 10.0 mi SSW 10.4 mph 18.4 mph N/A   Overcast
9:59 AM 28.4 °F 18.0 °F 17.6 °F 64% 29.88 in 10.0 mi SSW 12.7 mph 20.7 mph N/A   Overcast
10:19 AM 28.4 °F 16.6 °F 17.6 °F 64% 29.87 in 10.0 mi SSW 16.1 mph 29.9 mph N/A   Overcast
10:39 AM 28.4 °F 16.2 °F 17.6 °F 64% 29.86 in 10.0 mi SSW 17.3 mph 32.2 mph N/A   Overcast
10:59 AM 28.4 °F 14.7 °F 17.6 °F 64% 29.86 in 10.0 mi SSW 21.9 mph 41.4 mph N/A   Overcast
11:13 AM 28.4 °F 14.1 °F 17.6 °F 64% 29.85 in 10.0 mi SSW 24.2 mph 49.5 mph N/A   Overcast
11:37 AM 28.4 °F 15.4 °F 17.6 °F 64% 29.84 in 10.0 mi SW 19.6 mph 39.1 mph N/A   Overcast
11:58 AM 28.4 °F 15.4 °F 15.8 °F 59% 29.83 in 10.0 mi SW 19.6 mph 35.7 mph N/A   Overcast
12:19 PM 28.4 °F 13.3 °F 15.8 °F 59% 29.81 in 10.0 mi SW 27.6 mph 38.0 mph N/A   Overcast
12:36 PM 28.4 °F 14.4 °F 15.8 °F 59% 29.80 in 10.0 mi SSW 23.0 mph 36.8 mph N/A   Overcast
12:57 PM 28.4 °F 11.4 °F 17.6 °F 64% 29.77 in 7.0 mi SW 36.8 mph 50.6 mph N/A   Overcast
1:12 PM 26.6 °F 10.6 °F 19.4 °F 74% 29.77 in 5.0 mi SSW 28.8 mph 43.7 mph N/A Snow Light Snow
1:39 PM 26.6 °F 15.2 °F 21.2 °F 80% 29.77 in 10.0 mi SSW 13.8 mph 36.8 mph N/A   Overcast
1:57 PM 24.8 °F 8.4 °F 23.0 °F 93% 29.76 in 2.0 mi SW 27.6 mph 46.0 mph N/A Snow Light Snow
2:03 PM 24.8 °F 8.4 °F 23.0 °F 93% 29.76 in 1.0 mi WSW 27.6 mph 38.0 mph N/A Snow Light Snow
2:37 PM 23.0 °F 11.1 °F 23.0 °F 100% 29.75 in 0.2 mi SSW 12.7 mph 33.4 mph 0.02 in Snow Heavy Snow
2:58 PM 24.8 °F 11.9 °F 24.8 °F 100% 29.75 in 0.2 mi SSW 16.1 mph 26.5 mph 0.05 in Snow Heavy Snow
3:19 PM 24.8 °F - 24.8 °F 100% 29.74 in 0.2 mi North - - 0.03 in Snow Heavy Snow
3:35 PM 24.8 °F - 24.8 °F 100% 29.73 in 0.2 mi North - - 0.07 in Snow Heavy Snow
3:48 PM 24.8 °F - 24.8 °F 100% 29.72 in 0.2 mi North - - 0.11 in Snow Heavy Snow
4:17 PM 24.8 °F - 24.8 °F 100% 29.70 in 0.2 mi North - - 0.04 in Snow Snow
4:39 PM 24.8 °F - 24.8 °F 100% 29.69 in 0.2 mi North - - 0.08 in Snow Heavy Snow
4:57 PM 24.8 °F - 24.8 °F 100% 29.69 in 0.2 mi North - - 0.13 in Snow , Thunderstorm Heavy Thunderstorms and Snow
5:16 PM 23.0 °F - 23.0 °F 100% 29.69 in 0.2 mi North - - 0.06 in Snow Heavy Snow
5:39 PM 23.0 °F - 23.0 °F 100% 29.68 in 0.2 mi North - - 0.12 in Snow Heavy Snow
5:58 PM 23.0 °F - 23.0 °F 100% 29.67 in 0.2 mi North - - 0.14 in Snow Heavy Snow
6:12 PM 21.2 °F - 19.4 °F 93% 29.67 in 0.2 mi North - - 0.01 in Snow Heavy Snow
6:39 PM 19.4 °F - 19.4 °F 100% 29.69 in 0.2 mi North - - 0.02 in Snow Snow
6:59 PM 19.4 °F - 19.4 °F 100% 29.70 in 0.2 mi North - - 0.02 in Snow Heavy Snow
7:17 PM 19.4 °F - 17.6 °F 93% 29.70 in 0.2 mi North - - 0.04 in Snow Heavy Snow
7:39 PM 14.0 °F - 14.0 °F 100% 29.72 in 0.2 mi North - - 0.05 in Snow Heavy Snow
7:57 PM 14.0 °F - 12.2 °F 93% 29.72 in 0.2 mi North - - 0.07 in Snow Heavy Snow
8:19 PM 14.0 °F - 12.2 °F 93% 29.71 in 0.8 mi North - - N/A Snow Light Snow
8:39 PM 14.0 °F - 12.2 °F 93% 29.68 in 0.5 mi North - - N/A Snow Snow
8:57 PM 14.0 °F - 12.2 °F 93% 29.66 in 0.5 mi North - - N/A Snow Snow
9:12 PM 12.2 °F - 12.2 °F 100% 29.66 in 0.8 mi North - - N/A Snow Snow
9:39 PM 14.0 °F - 12.2 °F 93% 29.65 in 0.2 mi North - - N/A Snow Snow
9:58 PM 14.0 °F - 12.2 °F 93% 29.65 in 0.2 mi North - - N/A Snow Snow
10:14 PM 14.0 °F - 12.2 °F 93% 29.68 in 0.2 mi North - - 0.01 in Snow Snow
10:39 PM 14.0 °F - 12.2 °F 93% 29.68 in 0.5 mi North - - 0.03 in Snow Snow
10:57 PM 14.0 °F - 12.2 °F 93% 29.66 in 0.5 mi North - - 0.04 in Snow Heavy Snow
11:19 PM 14.0 °F - 12.2 °F 93% 29.64 in 0.2 mi North - - 0.02 in Snow Heavy Snow
11:37 PM 14.0 °F - 12.2 °F 93% 29.62 in 0.5 mi North - - 0.03 in Snow Snow
11:54 PM 12.2 °F - 12.2 °F 100% 29.61 in 0.2 mi North - - 0.04 in Snow Heavy Snow